"startDT [UTC]","vpos","CH4 [ppm]","stdev(CH4) [ppm]","CO2 [ppm]","stdev(CO2) [ppm]","H2O_reported [%]","stdev(H2O_reported)","CavityPressure [torr]","CavityTemp [C]","OutletValve","CH4_dry [ppm]","CO2_dry [ppm]","DasTemp [C]","EtalonTemp [C]","WarmBoxTemp [C]","MPVPosition","T_ECpre [C]","T_EC1 [C]","T_EC2 [C]","p_inlet [hPa]","p_in [hPa]","p_out [hPa]","T_inlet [C]","RH_inlet [%]","dwpt_inlet [C]","T_vent [C]","RH_vent [%]","dwpt_vent [C]","flow_vent [l min-1]","flow_inlet [l min-1]","dwpt_sample [C]","T_room [C]"
2015-01-04 00:00:00,3.0,1.88459,0.02602,399.348,2.614,0.0035,0.0062,140.094,45.000,31078.91198,1.88722,399.498,31.127,45.069,45.000,0.00,0.09,-272.65,-272.77,-6,526,1,17.9,0.6,-44.1,18.4,2.6,-29.1,5.73,1.84,-22.9,24.3
2015-01-04 00:01:00,3.0,1.87677,0.00035,397.185,0.075,0.0002,0.0017,140.003,45.000,31236.98127,1.87677,397.191,31.126,45.069,45.000,0.00,0.09,-272.67,-272.77,-2,526,1,17.9,0.6,-44.4,18.3,2.6,-29.1,5.73,2.75,-22.9,24.3
2015-01-04 00:02:00,3.0,1.87692,0.00037,397.250,0.079,0.0001,0.0018,140.001,45.000,31277.54991,1.87693,397.245,31.123,45.069,45.000,0.00,0.09,-272.72,-272.71,-1,526,1,17.9,0.6,-44.5,18.4,2.6,-29.2,5.73,2.84,-22.9,24.3
2015-01-04 00:03:00,3.0,1.87677,0.00032,397.509,0.076,-0.0004,0.0017,140.001,45.000,31310.89372,1.87676,397.504,31.112,45.068,45.000,0.00,0.09,-272.69,-272.74,-6,526,1,17.9,0.6,-44.5,18.4,2.6,-29.2,5.73,1.90,-22.9,24.3
2015-01-04 00:04:00,3.0,1.87669,0.00046,397.639,0.040,0.0008,0.0019,140.000,45.000,31336.88592,1.87668,397.642,31.078,45.068,45.000,0.00,0.09,-272.65,-272.79,-2,526,1,17.9,0.6,-44.5,18.4,2.6,-29.2,5.73,2.19,-22.9,24.3
2015-01-04 00:05:00,3.0,1.87671,0.00035,397.641,0.027,-0.0005,0.0024,140.001,45.000,31361.09413,1.87673,397.639,31.075,45.068,45.000,0.00,0.09,-272.70,-272.74,-1,526,1,18.0,0.6,-44.2,18.4,2.6,-29.2,5.73,3.02,-22.9,24.3
2015-01-04 00:06:00,3.0,1.87674,0.00041,397.663,0.035,0.0007,0.0021,139.998,45.000,31381.07947,1.87674,397.666,31.066,45.069,45.000,0.00,0.09,-272.72,-272.71,-6,527,1,18.0,0.6,-44.3,18.4,2.6,-29.3,5.73,2.41,-22.9,24.4
2015-01-04 00:07:00,3.0,1.87656,0.00031,397.674,0.032,0.0000,0.0012,140.001,45.000,31398.67011,1.87656,397.675,31.063,45.068,45.000,0.00,0.09,-272.66,-272.77,-2,527,1,18.0,0.6,-44.3,18.4,2.5,-29.3,5.73,1.81,-22.9,24.4
2015-01-04 00:08:00,3.0,1.87671,0.00036,397.650,0.030,-0.0003,0.0018,139.999,45.000,31412.92334,1.87670,397.649,31.061,45.069,45.000,0.00,0.09,-272.67,-272.77,-2,527,1,18.1,0.6,-44.2,18.4,2.6,-29.3,5.73,2.67,-22.9,24.4
2015-01-04 00:09:00,3.0,1.87665,0.00029,397.661,0.034,-0.0001,0.0016,140.003,45.000,31426.67717,1.87665,397.659,31.057,45.068,45.000,0.00,0.09,-272.73,-272.71,-6,527,1,18.1,0.6,-44.0,18.5,2.6,-29.2,5.73,2.91,-22.9,24.5
2015-01-04 00:10:00,3.0,1.87664,0.00044,397.660,0.025,-0.0004,0.0015,140.000,45.000,31438.56624,1.87663,397.658,31.051,45.068,45.000,0.00,0.09,-272.71,-272.73,-2,527,1,18.1,0.6,-43.9,18.5,2.5,-29.3,5.73,1.96,-22.9,24.5
2015-01-04 00:11:00,3.0,1.87651,0.00032,397.656,0.028,0.0003,0.0021,139.998,45.000,31448.99779,1.87652,397.657,31.048,45.068,45.000,0.00,0.09,-272.65,-272.79,-2,528,1,18.2,0.6,-43.9,18.5,2.5,-29.3,5.73,2.06,-22.9,24.5
2015-01-04 00:12:00,3.0,1.87642,0.00036,397.655,0.034,-0.0004,0.0016,140.002,45.000,31459.85187,1.87642,397.653,31.054,45.068,45.000,0.00,0.09,-272.69,-272.75,-6,528,1,18.2,0.6,-43.9,18.6,2.5,-29.3,5.73,2.96,-22.9,24.5
2015-01-04 00:13:00,3.0,1.87629,0.00035,397.643,0.034,-0.0007,0.0020,139.999,45.000,31466.58746,1.87626,397.640,31.042,45.068,45.000,0.00,0.09,-272.74,-272.71,-2,528,1,18.3,0.6,-44.2,18.6,2.5,-29.3,5.73,2.64,-22.9,24.6
2015-01-04 00:14:00,3.0,1.87634,0.00031,397.644,0.023,-0.0007,0.0015,139.998,45.000,31473.62125,1.87634,397.641,31.054,45.068,45.000,0.00,0.09,-272.68,-272.76,-2,528,1,18.3,0.6,-44.3,18.6,2.5,-29.4,5.73,1.80,-22.9,24.6
2015-01-04 00:15:00,3.0,1.87653,0.00027,397.652,0.029,-0.0008,0.0019,139.998,45.000,31479.69041,1.87651,397.647,31.045,45.068,45.000,0.00,0.09,-272.65,-272.79,-6,529,1,18.4,0.5,-44.4,18.7,2.5,-29.4,5.73,2.35,-22.9,24.6
2015-01-04 00:16:00,3.0,1.87657,0.00036,397.648,0.030,-0.0004,0.0020,139.998,45.000,31485.48698,1.87656,397.645,31.034,45.068,45.000,0.00,0.09,-272.72,-272.72,-2,529,1,18.4,0.5,-44.7,18.7,2.5,-29.4,5.73,3.03,-22.9,24.7
2015-01-04 00:17:00,3.0,1.87642,0.00029,397.666,0.033,-0.0001,0.0016,139.999,45.000,31489.88818,1.87643,397.667,31.009,45.068,45.000,0.00,0.09,-272.73,-272.72,-2,529,1,18.4,0.6,-44.2,18.7,2.5,-29.4,5.73,2.27,-22.9,24.7
2015-01-04 00:18:00,3.0,1.87630,0.00026,397.647,0.024,-0.0012,0.0020,139.997,45.000,31494.05814,1.87627,397.640,31.005,45.068,45.000,0.00,0.09,-272.65,-272.77,-6,529,1,18.5,0.6,-44.1,18.7,2.5,-29.4,5.73,1.82,-22.9,24.7
2015-01-04 00:19:00,3.0,1.87639,0.00037,397.650,0.041,-0.0006,0.0018,139.999,45.000,31498.48794,1.87639,397.647,31.001,45.069,45.000,0.00,0.09,-272.67,-272.77,-2,530,1,18.5,0.6,-43.6,18.8,2.5,-29.4,5.73,2.70,-22.8,24.7
2015-01-04 00:20:00,0.0,1.94129,0.02844,403.919,2.857,0.0114,0.0070,139.816,45.000,29123.89857,1.93892,403.847,31.000,45.069,45.000,0.00,0.09,-272.71,-272.73,-6,180,1,18.6,0.6,-43.3,18.8,2.5,-29.4,5.73,2.42,-22.9,24.8
2015-01-04 00:21:00,0.0,1.95268,0.00039,405.232,0.024,0.0165,0.0018,139.996,45.000,29024.92507,1.95301,405.312,31.000,45.069,45.000,0.00,0.09,-272.69,-272.75,-4,180,1,18.6,0.6,-43.2,18.9,2.5,-29.4,5.73,2.75,-22.8,24.8
2015-01-04 00:22:00,0.0,1.95208,0.00045,405.205,0.034,0.0179,0.0018,139.996,45.000,28990.21108,1.95247,405.292,30.976,45.069,45.000,0.00,0.09,-272.67,-272.75,-6,179,1,18.7,0.6,-43.2,18.9,2.5,-29.3,5.73,2.24,-22.8,24.8
2015-01-04 00:23:00,0.0,1.95147,0.00048,405.186,0.036,0.0176,0.0017,139.997,45.000,28961.17344,1.95182,405.272,30.970,45.068,45.000,0.00,0.09,-272.71,-272.73,-7,180,0,18.7,0.6,-43.2,18.9,2.5,-29.3,5.73,2.55,-22.8,24.8
2015-01-04 00:24:00,0.0,1.95097,0.00037,405.188,0.029,0.0178,0.0016,139.999,45.000,28938.07350,1.95132,405.275,30.951,45.068,45.000,0.00,0.09,-272.69,-272.76,-5,181,1,18.7,0.6,-42.8,18.9,2.5,-29.3,5.73,2.70,-22.9,24.8
2015-01-04 00:25:00,0.0,1.95057,0.00037,405.185,0.025,0.0173,0.0016,139.999,45.000,28920.01755,1.95092,405.269,30.974,45.069,45.000,0.00,0.09,-272.67,-272.75,-5,180,1,18.7,0.6,-42.7,18.9,2.5,-29.3,5.73,2.21,-22.8,24.8
2015-01-04 00:26:00,0.0,1.95005,0.00044,405.178,0.028,0.0187,0.0015,139.995,45.000,28900.89171,1.95043,405.269,30.949,45.069,45.000,0.00,0.09,-272.71,-272.72,-7,181,0,18.7,0.7,-42.6,18.9,2.5,-29.3,5.73,2.61,-22.8,24.8
2015-01-04 00:27:00,0.0,1.94954,0.00048,405.179,0.040,0.0196,0.0020,139.999,45.000,28889.22368,1.94993,405.275,30.949,45.068,45.000,0.00,0.09,-272.68,-272.76,-6,181,0,18.7,0.7,-42.3,19.0,2.5,-29.3,5.73,2.65,-22.8,24.8
2015-01-04 00:28:00,0.0,1.94895,0.00042,405.169,0.033,0.0192,0.0011,139.998,45.000,28879.80024,1.94935,405.262,30.982,45.068,45.000,0.00,0.09,-272.68,-272.75,-5,181,0,18.7,0.7,-41.9,19.0,2.5,-29.3,5.73,2.21,-22.8,24.8
2015-01-04 00:29:00,0.0,1.94886,0.00035,405.165,0.035,0.0196,0.0022,139.999,45.000,28870.57122,1.94921,405.260,30.999,45.068,45.000,0.00,0.09,-272.71,-272.72,-6,181,0,18.7,0.7,-41.9,19.0,2.5,-29.3,5.73,2.67,-22.8,24.8
2015-01-04 00:30:00,0.0,1.94858,0.00034,405.179,0.018,0.0195,0.0018,140.000,45.000,28859.55840,1.94899,405.274,30.999,45.068,45.000,0.00,0.09,-272.67,-272.76,-7,180,0,18.7,0.7,-41.8,19.0,2.5,-29.3,5.73,2.59,-22.8,24.8
2015-01-04 00:31:00,0.0,1.94893,0.00043,405.186,0.037,0.0198,0.0021,139.997,45.000,28849.81560,1.94928,405.281,30.999,45.068,45.000,0.00,0.09,-272.69,-272.75,-5,181,0,18.7,0.7,-42.0,19.0,2.5,-29.3,5.73,2.22,-22.8,24.8
2015-01-04 00:32:00,0.0,1.95018,0.00090,405.203,0.036,0.0191,0.0015,139.999,45.000,28844.22758,1.95047,405.295,31.000,45.068,45.000,0.00,0.09,-272.71,-272.72,-5,181,0,18.7,0.7,-42.2,19.0,2.5,-29.2,5.73,2.71,-22.8,24.8
2015-01-04 00:33:00,0.0,1.95030,0.00081,405.196,0.034,0.0181,0.0016,139.999,45.000,28839.72895,1.95068,405.286,31.000,45.068,45.000,0.00,0.09,-272.68,-272.76,-7,180,0,18.7,0.6,-42.6,19.0,2.5,-29.3,5.73,2.54,-22.8,24.8
2015-01-04 00:34:00,0.0,1.95010,0.00051,405.210,0.037,0.0172,0.0020,139.998,45.000,28834.63159,1.95049,405.294,31.000,45.068,45.000,0.00,0.09,-272.69,-272.75,-6,181,0,18.7,0.6,-42.9,19.0,2.5,-29.2,5.73,2.21,-22.8,24.8
2015-01-04 00:35:00,0.0,1.94900,0.00059,405.184,0.028,0.0179,0.0016,139.996,45.000,28832.02290,1.94933,405.271,31.000,45.068,45.000,0.00,0.09,-272.71,-272.73,-5,181,0,18.7,0.6,-42.8,19.0,2.5,-29.3,5.73,2.72,-22.8,24.7
2015-01-04 00:36:00,0.0,1.94914,0.00044,405.168,0.033,0.0183,0.0017,139.999,45.000,28830.57946,1.94950,405.258,30.999,45.068,45.000,0.00,0.09,-272.66,-272.76,-6,180,0,18.7,0.6,-42.8,19.0,2.5,-29.3,5.73,2.45,-22.8,24.7
2015-01-04 00:37:00,0.0,1.94931,0.00029,405.181,0.030,0.0181,0.0019,139.999,45.000,28832.64753,1.94966,405.269,31.000,45.068,45.000,0.00,0.09,-272.69,-272.74,-7,181,0,18.7,0.6,-42.8,19.0,2.5,-29.2,5.73,2.25,-22.8,24.7
2015-01-04 00:38:00,0.0,1.94923,0.00034,405.153,0.036,0.0179,0.0013,139.998,45.000,28829.60318,1.94957,405.240,30.999,45.068,45.000,0.00,0.09,-272.70,-272.74,-5,182,0,18.7,0.6,-42.8,19.0,2.5,-29.1,5.73,2.77,-22.8,24.7
2015-01-04 00:39:00,0.0,1.94929,0.00035,405.147,0.029,0.0179,0.0015,139.999,45.000,28826.50785,1.94963,405.235,31.000,45.068,45.000,0.00,0.09,-272.66,-272.76,-5,181,0,18.6,0.6,-42.7,19.0,2.5,-29.2,5.73,2.37,-22.8,24.7
2015-01-04 00:40:00,0.0,1.94927,0.00032,405.143,0.033,0.0178,0.0015,139.999,45.000,28823.24457,1.94961,405.228,31.000,45.068,45.000,0.00,0.09,-272.69,-272.74,-7,181,0,18.6,0.6,-42.9,19.0,2.5,-29.2,5.73,2.31,-22.8,24.7
2015-01-04 00:41:00,0.0,1.94915,0.00042,405.155,0.028,0.0181,0.0015,139.998,45.000,28822.68698,1.94949,405.243,30.974,45.068,45.000,0.00,0.09,-272.70,-272.74,-6,182,0,18.6,0.6,-42.9,19.0,2.5,-29.2,5.73,2.78,-22.8,24.7
2015-01-04 00:42:00,0.0,1.94929,0.00043,405.160,0.030,0.0176,0.0019,140.001,45.000,28829.95664,1.94962,405.246,30.958,45.068,45.000,0.00,0.09,-272.66,-272.76,-5,182,0,18.6,0.6,-42.8,19.0,2.5,-29.2,5.73,2.28,-22.8,24.7
2015-01-04 00:43:00,0.0,1.94944,0.00021,405.154,0.026,0.0175,0.0017,140.000,45.000,28826.54520,1.94978,405.238,30.973,45.068,45.000,0.00,0.09,-272.70,-272.73,-7,182,0,18.6,0.6,-42.9,18.9,2.5,-29.2,5.73,2.45,-22.8,24.7
2015-01-04 00:44:00,0.0,1.94982,0.00042,405.156,0.034,0.0180,0.0013,140.000,45.000,28823.17925,1.95017,405.244,30.964,45.068,45.000,0.00,0.09,-272.69,-272.75,-6,183,0,18.5,0.6,-42.8,18.9,2.5,-29.2,5.73,2.71,-22.8,24.6
2015-01-04 00:45:00,0.0,1.94937,0.00022,405.145,0.024,0.0178,0.0014,139.999,45.000,28830.74251,1.94971,405.232,30.954,45.068,45.000,0.00,0.09,-272.67,-272.76,-4,183,0,18.5,0.6,-42.9,18.9,2.5,-29.2,5.73,2.19,-22.8,24.6
2015-01-04 00:46:00,0.0,1.94937,0.00038,405.157,0.033,0.0171,0.0018,139.999,45.000,28831.89032,1.94971,405.240,30.945,45.068,45.000,0.00,0.09,-272.71,-272.73,-6,183,0,18.5,0.6,-42.8,18.9,2.5,-29.2,5.73,2.61,-22.8,24.6
2015-01-04 00:47:00,0.0,1.94925,0.00029,405.140,0.034,0.0182,0.0027,140.002,45.000,28835.18954,1.94959,405.228,30.951,45.068,45.000,0.00,0.09,-272.68,-272.76,-7,184,0,18.5,0.6,-42.9,18.9,2.5,-29.2,5.73,2.59,-22.8,24.6
2015-01-04 00:48:00,0.0,1.94943,0.00035,405.156,0.031,0.0178,0.0015,140.000,45.000,28836.34077,1.94976,405.243,30.950,45.068,45.000,0.00,0.09,-272.69,-272.75,-4,185,0,18.5,0.6,-42.9,18.9,2.5,-29.2,5.73,2.18,-22.8,24.6
2015-01-04 00:49:00,0.0,1.94929,0.00045,405.142,0.037,0.0183,0.0015,140.001,45.000,28837.26139,1.94966,405.230,30.954,45.069,45.000,0.00,0.09,-272.70,-272.72,-5,184,0,18.5,0.6,-42.8,18.9,2.5,-29.2,5.73,2.77,-22.8,24.6
2015-01-04 00:50:00,0.0,1.94917,0.00032,405.153,0.031,0.0185,0.0017,139.999,45.000,28841.95098,1.94952,405.243,30.966,45.068,45.000,0.00,0.09,-272.67,-272.76,-7,185,0,18.4,0.7,-42.7,18.9,2.5,-29.2,5.73,2.37,-22.8,24.6
2015-01-04 00:51:00,0.0,1.94958,0.00029,405.162,0.038,0.0182,0.0017,140.000,45.000,28837.48873,1.94991,405.251,30.964,45.068,45.000,0.00,0.09,-272.70,-272.74,-5,185,0,18.4,0.7,-42.5,18.9,2.5,-29.2,5.73,2.35,-22.8,24.6
2015-01-04 00:52:00,0.0,1.94990,0.00027,405.147,0.031,0.0183,0.0019,139.999,45.000,28835.30276,1.95024,405.236,30.947,45.068,45.000,0.00,0.09,-272.68,-272.74,-5,184,0,18.4,0.7,-42.6,18.9,2.5,-29.2,5.73,2.78,-22.8,24.6
2015-01-04 00:53:00,0.0,1.95000,0.00031,405.162,0.037,0.0187,0.0014,140.004,45.000,28834.17601,1.95035,405.253,30.970,45.068,45.000,0.00,0.09,-272.68,-272.76,-7,184,0,18.4,0.7,-42.7,18.9,2.5,-29.2,5.73,2.19,-22.8,24.6
2015-01-04 00:54:00,0.0,1.95037,0.00035,405.181,0.032,0.0180,0.0013,139.997,45.000,28832.88154,1.95072,405.268,30.965,45.068,45.000,0.00,0.09,-272.71,-272.73,-5,184,0,18.3,0.7,-42.8,18.9,2.5,-29.2,5.73,2.58,-22.8,24.6
2015-01-04 00:55:00,0.0,1.95015,0.00036,405.173,0.029,0.0176,0.0013,139.998,45.000,28833.27611,1.95048,405.259,30.938,45.068,45.000,0.00,0.09,-272.67,-272.76,-5,184,0,18.3,0.6,-43.1,18.8,2.5,-29.3,5.73,2.63,-22.8,24.5
2015-01-04 00:56:00,0.0,1.94992,0.00034,405.130,0.024,0.0169,0.0016,140.000,45.000,28832.09106,1.95027,405.214,30.938,45.068,45.000,0.00,0.09,-272.67,-272.74,-7,183,0,18.3,0.6,-43.4,18.8,2.5,-29.3,5.73,2.18,-22.8,24.5
2015-01-04 00:57:00,0.0,1.94970,0.00036,405.131,0.037,0.0181,0.0016,139.999,45.000,28832.00749,1.95001,405.217,30.940,45.068,45.000,0.00,0.09,-272.71,-272.73,-6,184,0,18.3,0.6,-43.3,18.8,2.5,-29.3,5.73,2.75,-22.8,24.5
2015-01-04 00:58:00,0.0,1.94957,0.00046,405.113,0.038,0.0185,0.0017,139.997,45.000,28829.15685,1.94997,405.204,30.946,45.068,45.000,0.00,0.09,-272.66,-272.77,-4,184,0,18.3,0.6,-43.0,18.8,2.5,-29.3,5.73,2.40,-22.8,24.5
2015-01-04 00:59:00,0.0,1.94938,0.00027,405.092,0.020,0.0188,0.0025,140.001,45.000,28829.52055,1.94974,405.184,30.939,45.068,45.000,0.00,0.09,-272.69,-272.74,-6,183,0,18.3,0.6,-43.0,18.7,2.5,-29.3,5.73,2.30,-22.8,24.5
2015-01-04 01:00:00,0.0,1.94914,0.00031,405.075,0.027,0.0186,0.0021,140.002,45.000,28832.20987,1.94952,405.166,30.910,45.068,45.000,0.00,0.09,-272.70,-272.74,-6,184,0,18.2,0.7,-42.9,18.7,2.5,-29.3,5.73,2.78,-22.8,24.5
2015-01-04 01:01:00,0.0,1.94899,0.00036,405.074,0.026,0.0179,0.0022,139.996,45.000,28829.46189,1.94936,405.161,30.891,45.068,45.000,0.00,0.09,-272.67,-272.77,-4,184,0,18.2,0.7,-42.7,18.7,2.5,-29.3,5.73,2.25,-22.8,24.5
2015-01-04 01:02:00,0.0,1.94914,0.00023,405.055,0.028,0.0186,0.0018,140.003,45.000,28830.55310,1.94945,405.145,30.896,45.068,45.000,0.00,0.09,-272.71,-272.73,-6,182,0,18.2,0.7,-42.6,18.7,2.5,-29.3,5.73,2.49,-22.8,24.5
2015-01-04 01:03:00,0.0,1.94924,0.00033,405.090,0.032,0.0196,0.0017,140.001,45.000,28825.36480,1.94961,405.185,30.919,45.068,45.000,0.00,0.09,-272.68,-272.75,-7,183,0,18.2,0.7,-42.5,18.7,2.5,-29.3,5.73,2.70,-22.8,24.5
2015-01-04 01:04:00,0.0,1.94896,0.00036,405.049,0.035,0.0186,0.0017,139.999,45.000,28824.73586,1.94934,405.139,30.920,45.068,45.000,0.00,0.09,-272.68,-272.76,-4,184,0,18.2,0.7,-42.3,18.7,2.5,-29.3,5.73,2.17,-22.8,24.5
2015-01-04 01:05:00,0.0,1.94882,0.00037,405.053,0.026,0.0191,0.0016,140.001,45.000,28830.19050,1.94920,405.147,30.938,45.068,45.000,0.00,0.09,-272.70,-272.73,-5,183,0,18.1,0.7,-42.2,18.7,2.5,-29.3,5.73,2.64,-22.8,24.5
2015-01-04 01:06:00,0.0,1.94895,0.00036,405.044,0.033,0.0188,0.0020,139.998,45.000,28827.91165,1.94931,405.136,30.938,45.068,45.000,0.00,0.09,-272.68,-272.75,-7,183,0,18.1,0.7,-42.0,18.7,2.5,-29.4,5.73,2.55,-22.8,24.5
2015-01-04 01:07:00,0.0,1.94903,0.00049,405.056,0.030,0.0194,0.0016,140.002,45.000,28828.28457,1.94938,405.150,30.939,45.068,45.000,0.00,0.09,-272.68,-272.74,-5,183,0,18.1,0.7,-42.0,18.7,2.5,-29.3,5.73,2.19,-22.8,24.4
2015-01-04 01:08:00,0.0,1.94884,0.00036,405.058,0.028,0.0194,0.0013,139.999,45.000,28831.93603,1.94922,405.152,30.938,45.068,45.000,0.00,0.09,-272.70,-272.73,-4,183,0,18.1,0.7,-42.1,18.7,2.5,-29.3,5.73,2.75,-22.8,24.5
2015-01-04 01:09:00,0.0,1.94938,0.00037,405.094,0.025,0.0191,0.0022,140.000,45.000,28828.86628,1.94973,405.186,30.937,45.068,45.000,0.00,0.09,-272.66,-272.76,-7,183,0,18.1,0.7,-42.2,18.7,2.5,-29.2,5.73,2.39,-22.8,24.4
2015-01-04 01:10:00,0.0,1.94871,0.00051,405.038,0.038,0.0199,0.0017,139.998,45.000,28825.43620,1.94913,405.136,30.938,45.068,45.000,0.00,0.09,-272.69,-272.73,-5,183,0,18.1,0.7,-42.0,18.7,2.5,-29.3,5.73,2.30,-22.9,24.4
2015-01-04 01:11:00,0.0,1.94839,0.00036,405.038,0.041,0.0191,0.0030,140.000,45.000,28822.66840,1.94877,405.134,30.950,45.068,45.000,0.00,0.09,-272.70,-272.74,-4,182,0,18.1,0.7,-41.9,18.6,2.5,-29.3,5.73,2.77,-22.9,24.4
2015-01-04 01:12:00,0.0,1.94877,0.00038,405.025,0.042,0.0199,0.0013,140.001,45.000,28822.49851,1.94910,405.120,30.982,45.068,45.000,0.00,0.09,-272.66,-272.75,-6,182,0,18.1,0.7,-42.0,18.6,2.5,-29.3,5.73,2.27,-22.9,24.4
2015-01-04 01:13:00,0.0,1.94912,0.00044,405.055,0.038,0.0198,0.0021,139.999,45.000,28818.75699,1.94950,405.150,30.995,45.068,45.000,0.00,0.09,-272.70,-272.73,-6,182,0,18.1,0.7,-42.1,18.6,2.5,-29.3,5.73,2.45,-22.9,24.4
2015-01-04 01:14:00,0.0,1.94903,0.00029,405.065,0.035,0.0198,0.0016,139.998,45.000,28816.27399,1.94942,405.162,31.000,45.068,45.000,0.00,0.09,-272.69,-272.76,-4,182,0,18.1,0.7,-42.0,18.6,2.5,-29.3,5.73,2.75,-22.9,24.4
2015-01-04 01:15:00,0.0,1.94850,0.00041,405.049,0.046,0.0201,0.0020,140.001,45.000,28816.08507,1.94891,405.148,30.981,45.068,45.000,0.00,0.09,-272.67,-272.75,-5,182,0,18.1,0.7,-41.8,18.6,2.5,-29.3,5.73,2.22,-22.9,24.4
2015-01-04 01:16:00,0.0,1.94830,0.00039,405.046,0.031,0.0205,0.0014,140.000,45.000,28817.68085,1.94871,405.145,30.951,45.068,45.000,0.00,0.09,-272.71,-272.72,-7,182,0,18.0,0.8,-41.6,18.6,2.5,-29.3,5.73,2.57,-22.9,24.4
2015-01-04 01:17:00,0.0,1.94798,0.00034,405.088,0.033,0.0208,0.0016,140.000,45.000,28820.75051,1.94837,405.189,30.940,45.068,45.000,0.00,0.09,-272.68,-272.74,-5,182,0,18.0,0.8,-41.6,18.6,2.5,-29.3,5.73,2.67,-22.9,24.4
2015-01-04 01:18:00,0.0,1.94830,0.00035,405.058,0.030,0.0209,0.0022,140.000,45.000,28820.21714,1.94870,405.160,30.953,45.068,45.000,0.00,0.09,-272.68,-272.76,-4,182,0,18.0,0.8,-41.3,18.6,2.5,-29.3,5.73,2.17,-22.9,24.3
2015-01-04 01:19:00,0.0,1.94806,0.00031,405.082,0.047,0.0205,0.0021,139.999,45.000,28829.19012,1.94844,405.180,30.955,45.068,45.000,0.00,0.09,-272.70,-272.73,-6,184,0,18.0,0.8,-41.3,18.6,2.5,-29.3,5.73,2.71,-22.9,24.4
2015-01-04 01:20:00,0.0,1.94806,0.00036,405.085,0.027,0.0210,0.0013,139.997,45.000,28828.67552,1.94849,405.187,30.940,45.068,45.000,0.00,0.09,-272.67,-272.76,-5,184,1,18.0,0.8,-41.4,18.5,2.5,-29.3,5.73,2.51,-22.9,24.3
2015-01-04 01:21:00,0.0,1.94838,0.00043,405.115,0.042,0.0201,0.0017,139.998,45.000,28826.78868,1.94875,405.211,30.943,45.068,45.000,0.00,0.09,-272.69,-272.74,-4,183,0,18.0,0.8,-41.4,18.5,2.5,-29.3,5.73,2.26,-22.9,24.3
2015-01-04 01:22:00,0.0,1.94851,0.00036,405.125,0.033,0.0207,0.0015,139.998,45.000,28822.49875,1.94887,405.228,30.940,45.068,45.000,0.00,0.09,-272.70,-272.73,-6,183,1,18.0,0.8,-41.4,18.5,2.5,-29.3,5.73,2.77,-22.9,24.3
2015-01-04 01:23:00,0.0,1.94859,0.00041,405.115,0.028,0.0213,0.0016,140.000,45.000,28824.97118,1.94901,405.218,30.939,45.068,45.000,0.00,0.09,-272.66,-272.76,-6,183,1,18.0,0.8,-41.1,18.5,2.5,-29.3,5.73,2.33,-22.9,24.3
2015-01-04 01:24:00,0.0,1.94884,0.00038,405.130,0.028,0.0207,0.0014,140.000,45.000,28828.24041,1.94922,405.230,30.938,45.068,45.000,0.00,0.09,-272.70,-272.73,-4,184,1,18.0,0.8,-41.4,18.5,2.5,-29.3,5.73,2.38,-22.9,24.3
2015-01-04 01:25:00,0.0,1.94908,0.00038,405.145,0.032,0.0206,0.0018,140.000,45.000,28827.77520,1.94947,405.245,30.935,45.068,45.000,0.00,0.09,-272.69,-272.75,-5,183,1,18.0,0.8,-41.4,18.5,2.5,-29.3,5.73,2.78,-22.9,24.3
2015-01-04 01:26:00,0.0,1.94888,0.00034,405.132,0.027,0.0212,0.0018,139.998,45.000,28829.06089,1.94931,405.236,30.922,45.068,45.000,0.00,0.09,-272.66,-272.76,-6,184,1,18.0,0.8,-41.4,18.5,2.5,-29.3,5.73,2.21,-22.9,24.3
2015-01-04 01:27:00,0.0,1.94880,0.00027,405.115,0.032,0.0210,0.0020,140.002,45.000,28829.30591,1.94917,405.218,30.915,45.068,45.000,0.00,0.09,-272.69,-272.72,-4,184,1,18.0,0.8,-41.4,18.5,2.5,-29.4,5.73,2.57,-22.9,24.3
2015-01-04 01:28:00,0.0,1.94907,0.00025,405.163,0.042,0.0206,0.0018,139.997,45.000,28825.89457,1.94947,405.262,30.914,45.068,45.000,0.00,0.09,-272.68,-272.76,-5,183,1,18.0,0.8,-41.3,18.5,2.5,-29.4,5.73,2.64,-22.9,24.3
2015-01-04 01:29:00,0.0,1.94896,0.00044,405.151,0.046,0.0205,0.0020,140.001,45.000,28830.56711,1.94937,405.252,30.930,45.068,45.000,0.00,0.09,-272.68,-272.74,-6,184,1,17.9,0.8,-41.4,18.5,2.5,-29.4,5.73,2.16,-22.9,24.3
2015-01-04 01:30:00,0.0,1.94938,0.00045,405.150,0.030,0.0201,0.0018,139.999,45.000,28827.92684,1.94975,405.247,30.933,45.068,45.000,0.00,0.09,-272.71,-272.74,-5,184,1,17.9,0.8,-41.7,18.5,2.5,-29.4,5.73,2.70,-22.9,24.3
2015-01-04 01:31:00,0.0,1.94994,0.00040,405.172,0.038,0.0209,0.0018,140.001,45.000,28829.55004,1.95031,405.273,30.938,45.068,45.000,0.00,0.09,-272.67,-272.76,-4,183,1,17.9,0.8,-41.7,18.4,2.5,-29.4,5.73,2.48,-23.0,24.3
2015-01-04 01:32:00,0.0,1.94903,0.00046,405.163,0.025,0.0204,0.0015,140.000,45.000,28827.62280,1.94942,405.264,30.945,45.068,45.000,0.00,0.09,-272.69,-272.74,-6,183,1,17.9,0.8,-41.5,18.4,2.5,-29.4,5.73,2.25,-22.9,24.3
2015-01-04 01:33:00,0.0,1.94905,0.00040,405.134,0.031,0.0207,0.0020,140.000,45.000,28822.09052,1.94947,405.234,30.942,45.068,45.000,0.00,0.09,-272.70,-272.73,-5,184,1,17.9,0.8,-41.4,18.4,2.5,-29.4,5.73,2.79,-22.9,24.3
2015-01-04 01:34:00,0.0,1.94960,0.00044,405.140,0.026,0.0209,0.0018,139.998,45.000,28821.59788,1.94994,405.241,30.939,45.068,45.000,0.00,0.09,-272.68,-272.76,-4,183,1,17.9,0.8,-41.3,18.5,2.5,-29.4,5.73,2.28,-22.9,24.3
2015-01-04 01:35:00,0.0,1.94950,0.00032,405.179,0.047,0.0216,0.0026,140.001,45.000,28823.00605,1.94997,405.282,30.938,45.068,45.000,0.00,0.09,-272.70,-272.73,-6,182,1,17.9,0.8,-41.4,18.4,2.5,-29.4,5.73,2.40,-22.9,24.3
2015-01-04 01:36:00,0.0,1.94937,0.00037,405.211,0.027,0.0215,0.0024,139.997,45.000,28822.05505,1.94977,405.316,30.936,45.068,45.000,0.00,0.09,-272.68,-272.73,-6,183,1,17.9,0.8,-41.4,18.4,2.5,-29.4,5.73,2.69,-23.0,24.3
2015-01-04 01:37:00,0.0,1.95026,0.00052,405.227,0.025,0.0203,0.0019,140.000,45.000,28821.09959,1.95061,405.325,30.933,45.068,45.000,0.00,0.09,-272.67,-272.74,-4,183,1,17.9,0.8,-41.5,18.4,2.5,-29.5,5.73,2.16,-22.9,24.3
2015-01-04 01:38:00,0.0,1.95102,0.00058,405.226,0.035,0.0200,0.0013,140.000,45.000,28822.03723,1.95139,405.324,30.934,45.068,45.000,0.00,0.09,-272.71,-272.74,-5,182,1,17.9,0.8,-41.8,18.4,2.5,-29.5,5.73,2.52,-23.0,24.3
2015-01-04 01:39:00,0.0,1.95172,0.00030,405.255,0.031,0.0196,0.0014,139.998,45.000,28819.23159,1.95207,405.349,30.929,45.068,45.000,0.00,0.09,-272.67,-272.75,-6,183,1,17.9,0.7,-42.1,18.4,2.5,-29.5,5.73,2.57,-23.0,24.3
2015-01-04 01:40:00,0.0,1.95191,0.00043,405.250,0.041,0.0198,0.0019,139.998,45.000,28824.19249,1.95231,405.347,30.937,45.068,45.000,0.00,0.09,-272.68,-272.74,-4,184,1,17.9,0.7,-42.5,18.4,2.5,-29.5,5.73,2.16,-23.0,24.3
2015-01-04 01:41:00,0.0,1.95168,0.00038,405.268,0.037,0.0189,0.0020,140.001,45.000,28827.09476,1.95205,405.360,30.938,45.068,45.000,0.00,0.09,-272.71,-272.74,-5,183,1,17.9,0.7,-42.4,18.4,2.5,-29.5,5.73,2.69,-23.0,24.2
2015-01-04 01:42:00,0.0,1.95153,0.00044,405.279,0.039,0.0184,0.0022,140.000,45.000,28825.16744,1.95191,405.369,30.937,45.068,45.000,0.00,0.09,-272.67,-272.77,-6,183,1,17.9,0.7,-42.5,18.4,2.5,-29.5,5.73,2.42,-23.0,24.3
2015-01-04 01:43:00,0.0,1.94924,0.00068,405.196,0.036,0.0186,0.0011,139.998,45.000,28823.29951,1.94966,405.286,30.938,45.068,45.000,0.00,0.09,-272.69,-272.74,-5,184,1,17.9,0.7,-42.5,18.4,2.5,-29.5,5.73,2.26,-23.0,24.2
2015-01-04 01:44:00,0.0,1.95015,0.00074,405.246,0.030,0.0192,0.0017,139.997,45.000,28822.65908,1.95047,405.340,30.924,45.068,45.000,0.00,0.09,-272.69,-272.74,-4,183,1,17.9,0.7,-42.4,18.4,2.5,-29.6,5.73,2.76,-23.0,24.2
2015-01-04 01:45:00,0.0,1.95024,0.00082,405.244,0.034,0.0186,0.0012,139.998,45.000,28823.37047,1.95058,405.334,30.882,45.068,45.000,0.00,0.09,-272.67,-272.76,-6,183,1,17.9,0.7,-42.3,18.4,2.5,-29.5,5.73,2.23,-23.0,24.2
2015-01-04 01:46:00,0.0,1.95080,0.00064,405.220,0.028,0.0187,0.0016,139.998,45.000,28826.74020,1.95118,405.313,30.878,45.068,45.000,0.00,0.09,-272.70,-272.72,-5,183,1,17.9,0.7,-42.4,18.4,2.5,-29.5,5.73,2.42,-23.0,24.2